Simultaneous Nadir Overpasses (SNOs) Predictions

Prediction of SNOs between FY3D and METOP-C Satellite Orbit:

Table of predicted SNOs for the next 14.0 days since TLE Epoch: 7/31/2022
Index Date (FY3D) Time (FY3D) Lat,Lon (FY3D) SZA (FY3D ) Date (METOP-C) Time (METOP-C) Lat,Lon (METOP-C) SZA (METOP-C ) Distance(km) Time Diff (sec)
1 08/13/2022 23:12:16 74.79,-174.73 60.43 08/13/2022 23:13:22 74.78,-171.76 60.32 86.51 66
2 08/14/2022 00:02:58 -74.65, -7.04 119.72 08/14/2022 00:04:07 -74.60, -4.93 119.85 62.42 69
3 08/14/2022 00:53:40 74.44, 160.86 60.06 08/14/2022 00:54:52 74.37, 161.80 59.96 29.13 72
4 08/14/2022 01:44:22 -74.30, -31.47 120.08 08/14/2022 01:45:36 -74.24, -31.21 120.16 10.58 74
5 08/14/2022 02:35:07 74.23, 136.03 59.85 08/14/2022 02:36:17 74.20, 136.03 59.82 2.43 70



Historial Predications of SNOs between FY3D and METOP-C
